Location: Mizzole
(45.4833°N, 11.0500°E)
Time: 03:51:34
(UTC+00:00)

Cosmos 1908 - Pass Details

Date: 21 October 2019
Orbit: 511 x 532 km, 82.5° (Epoch: 17 November)

Event Time Altitude Azimuth Distance (km) Brightness Sun altitude
Rises 16:55:29 0° 171° (S) 2,659 6.8 -6.8°
Reaches altitude 10° 16:57:41 10° 164° (SSE) 1,773 5.8 -7.2°
Maximum altitude 17:01:22 42° 94° (E) 761 3.6 -7.8°
Drops below altitude 10° 17:05:04 10° 22° (NNE) 1,778 5.6 -8.5°
Sets 17:07:17 0° 16° (NNE) 2,668 6.6 -8.8°
